Los Angeles, CA

12:17 AM PDT on April 23, 2017 (GMT -0700)
Los Angeles International

Weather History for KLAX - November, 2012

Change the Weather History Date:

Wednesday, November 14, 2012

  Actual Average Record
Temperature  
Mean Temperature 66 °F 61 °F  
Max Temperature 79 °F 69 °F 90 °F (2013)
Min Temperature 53 °F 54 °F 43 °F (2000)
Degree Days  
Heating Degree Days 0 4  
Month to date heating degree days 37 47  
Since 1 July heating degree days 54 91  
Cooling Degree Days 1 1  
Month to date cooling degree days 24 14  
Year to date cooling degree days 735 545  
Growing Degree Days 16 (Base 50)    
Moisture  
Dew Point 42 °F    
Average Humidity 51    
Maximum Humidity 90    
Minimum Humidity 11    
Precipitation  
Precipitation 0.00 in 0.04 in 1.27 in (1972)
Month to date precipitation 0.03 0.43  
Year to date precipitation 4.79 10.09  
Since 1 July precipitation 0.18  
Sea Level Pressure  
Sea Level Pressure 30.03 in    
Wind  
Wind Speed 5 mph (SSE)    
Max Wind Speed 14 mph    
Max Gust Speed 16 mph    
Visibility 9 miles    
Events Fog    
T = Trace of Precipitation, MM = Missing Value Source: NWS Daily Summary

Daily Weather History Graph

Daily Weather History Graph

Search for Another Location

Airport or City:

Trip Planner

Search our weather history database for the weather conditions in past years. The results will help you decide how hot, cold, wet, or windy it might be!

Date:

Astronomy

Nov. 14, 2012 Rise Set
Actual Time 6:25 AM PST 4:50 PM PST
Civil Twilight 5:59 AM PST 5:16 PM PST
Nautical Twilight 5:28 AM PST 5:47 PM PST
Astronomical Twilight 4:59 AM PST 6:16 PM PST
Moon 7:17 AM PST (11/14) 5:46 PM PST (11/14)
Length of Visible Light 11h 17m
Length of Day
10h 24m
New Moon, 1% of the Moon is Illuminated
Nov 14
New Moon
Nov 20
First Quarter
Nov 28
Full
Dec 6
Last Quarter
Dec 13
New

Hourly Weather History & Observations

Time (PST) Temp. Dew Point Humidity Pressure Visibility Wind Dir Wind Speed Gust Speed Precip Events Conditions
12:53 AM 60.1 °F 27.0 °F 28% 30.04 in 10.0 mi ESE 8.1 mph - N/A   Clear
1:53 AM 55.0 °F 42.1 °F 62% 30.04 in 10.0 mi East 5.8 mph - N/A   Scattered Clouds
2:53 AM 57.0 °F 44.1 °F 62% 30.04 in 10.0 mi ESE 4.6 mph - N/A   Scattered Clouds
3:53 AM 55.0 °F 44.1 °F 67% 30.04 in 10.0 mi ENE 3.5 mph - N/A   Scattered Clouds
4:53 AM 54.0 °F 45.0 °F 72% 30.04 in 10.0 mi East 3.5 mph - N/A   Mostly Cloudy
5:53 AM 55.9 °F 30.9 °F 39% 30.03 in 10.0 mi ESE 3.5 mph - N/A   Mostly Cloudy
6:53 AM 57.2 °F 32.0 °F 38% 30.04 in 10.0 mi Variable 4.6 mph - N/A   Mostly Cloudy
7:53 AM 62.6 °F 23.0 °F 22% 30.06 in 10.0 mi NE 9.2 mph - N/A   Mostly Cloudy
8:53 AM 71.1 °F 19.0 °F 14% 30.06 in 10.0 mi NE 3.5 mph - N/A   Mostly Cloudy
9:53 AM 75.0 °F 19.9 °F 13% 30.06 in 10.0 mi Variable 6.9 mph - N/A   Mostly Cloudy
10:53 AM 75.9 °F 18.0 °F 11% 30.06 in 10.0 mi SE 5.8 mph - N/A   Mostly Cloudy
11:53 AM 78.1 °F 19.0 °F 11% 30.03 in 10.0 mi Calm Calm - N/A   Mostly Cloudy
12:53 PM 73.9 °F 42.1 °F 32% 30.01 in 10.0 mi West 11.5 mph - N/A   Mostly Cloudy
1:53 PM 66.0 °F 53.1 °F 63% 30.01 in 10.0 mi West 12.7 mph - N/A   Mostly Cloudy
2:53 PM 66.0 °F 54.0 °F 65% 30.00 in 10.0 mi West 8.1 mph - N/A   Mostly Cloudy
3:53 PM 66.0 °F 53.1 °F 63% 29.99 in 10.0 mi West 8.1 mph - N/A   Scattered Clouds
4:53 PM 64.0 °F 53.1 °F 67% 30.00 in 10.0 mi West 8.1 mph - N/A   Scattered Clouds
5:53 PM 62.1 °F 55.9 °F 80% 30.02 in 10.0 mi West 5.8 mph - N/A   Mostly Cloudy
6:53 PM 60.8 °F 55.4 °F 82% 30.02 in 10.0 mi West 4.6 mph - N/A   Mostly Cloudy
7:53 PM 62.1 °F 57.0 °F 84% 30.03 in 9.0 mi Calm Calm - N/A Fog Patches of Fog
8:53 PM 61.0 °F 55.9 °F 83% 30.03 in 9.0 mi Calm Calm - N/A Fog Patches of Fog
9:53 PM 60.1 °F 57.0 °F 90% 30.04 in 7.0 mi South 3.5 mph - N/A Fog Patches of Fog
10:53 PM 60.1 °F 55.0 °F 83% 30.04 in 6.0 mi Calm Calm - N/A   Haze
11:53 PM 60.8 °F 55.4 °F 82% 30.02 in 4.0 mi Variable 4.6 mph - N/A Fog Patches of Fog